Flag for Vanuatu Weather past 2 weeks in Port Vila, Vanuatu

Now
72 °F

Passing clouds.


Feels Like: 67 °F
Forecast: 80 / 82 °F
Wind: No wind

Location: Bauerfield Efate


UV Index: 5 (Moderate)

Visibility: N/A


Pressure: 29.92 "Hg

Humidity: 94%

Dew point: 70 °F

Location of Port VilaLocation

Historic Weather in Port Vila

°F

Port Vila temperature yesterday

Maximum temperature yesterday: 82 °F (at 11:00 AM)
Minimum temperature yesterday: 72 °F (at 8:00 PM)
Average temperature yesterday: 77 °F

Past Weeks' High & Low Weather Summary

 TemperatureHumidityPressure
High88 °F (Apr 14, 11:00 AM)100% (Apr 10, 12:00 AM)29.98 "Hg (Apr 10, 12:00 AM)
Low61 °F (Apr 11, 6:00 AM)25% (Apr 23, 5:00 AM)29.77 "Hg (Apr 17, 2:00 PM)
Average77 °F86%29.88 "Hg
* Reported Midnight between Apr 9 and Apr 10 — Midnight between Apr 24 and Apr 25, Port Vila, Weather by CustomWeather, © 2014

Note: Actual official high and low records may vary slightly from our data, if they occured in-between our weather recording intervals... More about our weather records

Advertising

Historic Weather Conditions — Data for Previous 24 hours

 ConditionsComfort  
Time TempWeatherWind HumidityBarometerVisibility
12:00 AM
Apr 25
72 °FPassing clouds.No wind94%29.92 "HgN/A
11:00 PM
Apr 24
72 °FPassing clouds.No wind94%29.92 "HgN/A
10:00 PM72 °FPassing clouds.No wind88%29.92 "HgN/A
9:00 PM72 °FPassing clouds.No wind94%29.92 "HgN/A
8:00 PM72 °FPassing clouds.No wind94%29.92 "HgN/A
7:00 PM73 °FPassing clouds.No wind89%29.89 "HgN/A
6:00 PM77 °FPassing clouds.3 mph79%29.86 "HgN/A
5:00 PM79 °FBroken clouds.9 mph74%29.86 "HgN/A
4:00 PM81 °FBroken clouds.9 mph74%29.83 "HgN/A
3:00 PM81 °FScattered clouds.14 mph70%29.83 "HgN/A
2:00 PM81 °FScattered clouds.14 mph70%29.83 "HgN/A
1:00 PM82 °FPartly sunny.15 mph62%29.86 "HgN/A
12:00 PM81 °FBroken clouds.14 mph70%29.89 "HgN/A
11:00 AM82 °FBroken clouds.10 mph62%29.89 "HgN/A
10:00 AM81 °FPartly sunny.13 mph74%29.92 "HgN/A
9:00 AM81 °FPartly sunny.12 mph74%29.92 "HgN/A
8:00 AM79 °FScattered clouds.8 mph74%29.92 "HgN/A
7:00 AM77 °FBroken clouds.5 mph79%29.92 "HgN/A
6:00 AM77 °FBroken clouds.5 mph83%29.86 "HgN/A
5:00 AM77 °FPartly cloudy.9 mph83%29.86 "HgN/A
2:00 AM77 °FPassing clouds.9 mph83%29.89 "HgN/A
1:00 AM77 °FPartly cloudy.7 mph83%29.89 "HgN/A
Weather by CustomWeather, © 2014

See weather overview